Overview Statistics Trail Chart Weather Telemetry Raw packets
 

This is the latest recevied weather packets stored in our database for station/object IU5JAE-13. If no packets are shown the sender has not sent any weather packets the latest 10 day(s).

<< 29 30 31 32 33 34 35 >>
Time Temp. Humidity Pressure Rain* Wind** Luminosity Snow
1788268818 26.11° C 65% 1020 hPa 0 mm - 91 W/m² -
1788268216 26.11° C 66% 1019.9 hPa 0 mm - 119 W/m² -
1788267633 27.22° C 65% 1019.9 hPa 0 mm - 256 W/m² -
1788267031 28.33° C 61% 1019.8 hPa 0 mm - 320 W/m² -
1788266429 28.33° C 61% 1019.9 hPa 0 mm - 551 W/m² -
1788265826 27.78° C 61% 1020.1 hPa 0 mm - 564 W/m² -
1788265224 28.33° C 60% 1019.9 hPa 0 mm - 576 W/m² -
1788264621 27.78° C 61% 1019.9 hPa 0 mm - 589 W/m² -
1788264026 27.22° C 62% 1019.9 hPa 0 mm - 503 W/m² -
1788263416 27.78° C 63% 1019.9 hPa 0 mm - 626 W/m² -
1788262834 27.78° C 64% 1019.9 hPa 0 mm - 607 W/m² -
1788262232 27.22° C 65% 1019.9 hPa 0 mm - 618 W/m² -
1788261629 27.78° C 66% 1019.9 hPa 0 mm - 626 W/m² -
1788261027 27.22° C 67% 1020 hPa 0 mm - 631 W/m² -
1788260424 27.22° C 67% 1019.9 hPa 0 mm - 641 W/m² -
1788259822 27.22° C 67% 1020 hPa 0 mm - 618 W/m² -
1788259219 27.78° C 70% 1020 hPa 0 mm - 624 W/m² -
1788258639 26.67° C 73% 1020.2 hPa 0 mm - 592 W/m² -
1788258035 26.11° C 75% 1020.1 hPa 0 mm - 602 W/m² -
1788257432 26.11° C 75% 1020 hPa 0 mm - 589 W/m² -
1788256830 26.67° C 73% 1020 hPa 0 mm - 615 W/m² -
1788256227 26.67° C 73% 1020.1 hPa 0 mm - 654 W/m² -
1788255625 27.22° C 72% 1020 hPa 0 mm - 627 W/m² -
1788255023 26.11° C 75% 1020 hPa 0 mm - 569 W/m² -
1788254420 26.11° C 76% 1020 hPa 0 mm - 559 W/m² -

* Rain latest hour (hover to see other rain measurements)
** Current wind speed in m/s (hover to see current wind gust speed)